Location: Mexico
(19.4000°N, 99.1500°W)
Time: 08:21:11
(UTC-06:00)

ISS - Pass Details

Date: 17 September 2019
Orbit: 411 x 421 km, 51.6° (Epoch: 18 September)

Event Time Altitude Azimuth Distance (km) Brightness Sun altitude
Rises 20:15:35 0° 256° (WSW) 2,331 1.1 -23.8°
Reaches altitude 10° 20:18:35 10° 287° (WNW) 1,470 0.1 -24.5°
Maximum altitude 20:20:09 13° 315° (NW) 1,314 -0.6 -24.9°
Drops below altitude 10° 20:21:43 10° 343° (NNW) 1,470 -0.7 -25.2°
Enters shadow 20:22:12 - 351° (N) 1,575 -0.6 -25.3°
